DELTA 1 DEB, 42082

Orbit data source: Space-Track

DELTA 1 DEB, 42082 is space debris in SSO originally from a launch on Sun, 15 Dec 1968 UTC launched from the Air Force Western Test Range (AFWTR). Debris objects in space refer to the collection of defunct objects orbiting the Earth. Examples of debris include non-operational satellites, rocket bodies, and fragments generated from explosions, collisions, or faulty payload assembly.

Loading next visibility...
Identifier
42082, 1968-114J
Orbit
SSO
Country
Flag of USUS
Related business
Manufacturer
Aerojet
Mission
Spacecraft
Bus & Motor
Unknown
Mass
Unknown
Launch date (UTC)
1968-12-15 (57 years ago)
Launch vehicle
Unknown
Launch site
Air Force Western Test Range (AFWTR)
Object type
Payload
Rocket body
Debris
Shape & HBR
Unknown shape, 0.2 m
Radar Cross Section
Small (<0.1 m²)

Expand to show TLE details & history
Last TLE update: 14 hours ago

TLE from 14 hours ago
0 DELTA 1 DEB
1 42082U 68114J   25349.59534422  .00000024  00000-0  49146-3 0  9996
2 42082 101.9521 295.4886 0087681 294.1787 242.1121 12.42786937547601
Epoch: 2025-12-15T14:17Z
TLE epoch observation values (Epoch: 2025-12-15T14:17:17.740Z)
Latitude
4.41372°
Longitude
177.60467°
Altitude
1,529.666 km
Speed
7.087 km/s
True Right ascension
07h 45m 40s
True Declination
4° 23' 24"
Sunlit
Object was in full shadow at epoch
Visualization orbit readout
Latitude
Unknown
Longitude
Unknown
Altitude
Unknown
Speed
Unknown
Apparent Right ascension
Unknown
Apparent Declination
Unknown
Sunlit
N/A
Visualization observer readout
Local Sidereal Time
03:26:39
Azimuth
Unknown
Elevation
Unknown
Doppler factor
Unknown
Orbital elements
Apogee altitude
1,561.389 km
Perigee altitude
1,423.37 km
Semi-major axis
7,870.516 km
Eccentricity
0.00877
Inclination
101.9521°
RAAN
295.4886°
Arg. of periapsis
294.1787°
True anomaly
241.2286°
Mean anomaly
242.1121°
Eccentric anomaly
241.6699°
Mean motion
3.10841 °/min
Orbital period
115.81 mins
BSTAR
0.00049146
Loading maneuver chart data...
Computing Atmospheric mass density...
Loading historical data...
Loading historical data...
Loading historical data...
Loading historical data...
Loading historical data...
Loading historical data...
Loading historical data...

Documentation

Showing up to 5 results
|